Location: ????????
(55.0559°N, 39.1270°E)
Time: 00:52:17
(UTC+00:00)

Meteor 1-24 Rocket - Pass Details

Date: 15 November 2025
Orbit: 789 x 925 km, 81.3° (Epoch: 12 December)

Event Time Altitude Azimuth Distance (km) Brightness Sun altitude
Exits shadow 02:41:13 34° 264° (W) 1,361 4.2 -18.9°
Maximum altitude 02:42:33 38° 295° (WNW) 1,240 4.1 -18.7°
Drops below altitude 10° 02:47:38 10° 4° (N) 2,410 6.0 -18.0°
Sets 02:50:10 0° 12° (NNE) 3,330 6.9 -17.6°
